Tracking 31027 objects as of 19-Jul-2025
HD Live streaming from Space Station
objects crossing your sky now

SL-6 R/B(2)

Track SL-6 R/B(2) now!


NORAD ID: 19810
Int'l Code: 1989-014D
Perigee: 1,339.0 km
Apogee: 37,866.0 km
Inclination: 64.0 °
Period: 694.3 minutes
Semi major axis: 25973 km
RCS: 8.2817 m2 (large)
Launch date: February 15, 1989
Source: Commonwealth of Independent States (former USSR) (CIS)
Launch site: TYURATAM MISSILE AND SPACE COMPLEX (TTMTR)

Note: This is a ROCKET BODY
Your satellite tracking list
Your tracking list is empty




NASA's NSSDC Master Catalog

Two Line Element Set (TLE):
1 19810U 89014D   25194.77701538 -.00000661  00000-0  00000-0 0  9994
2 19810  63.9849  86.4876 7031591 252.2530  24.8468  2.07399297275570
Source of the keplerian elements: AFSPC